| time (UTC) | temp C | wind direction | speed KPH | gust KPH | rain 1hr cm | rain 24hr cm | rain mn cm | humidity % | barometer mb |
| 20260502183336 | 18 | 94 | 0.0 | 0.0 | 0.00 | 1.09 | 0.23 | 85 | 1019.5 |
| 20260502182842 | 18 | 104 | 0.0 | 0.0 | 0.00 | 1.09 | 0.23 | 85 | 1019.5 |
| 20260502182336 | 18 | 123 | 0.0 | 0.0 | 0.00 | 1.09 | 0.23 | 86 | 1019.7 |
| 20260502181841 | 18 | 108 | 0.0 | 0.0 | 0.00 | 1.09 | 0.23 | 86 | 1019.7 |
| 20260502181338 | 18 | 109 | 0.0 | 0.0 | 0.00 | 1.09 | 0.23 | 86 | 1019.7 |
| 20260502180337 | 18 | 102 | 0.0 | 3.2 | 0.00 | 1.09 | 0.23 | 86 | 1019.9 |
| 20260502170334 | 18 | 84 | 1.6 | 12.9 | 0.00 | 1.09 | 0.23 | 86 | 1020.2 |
| 20260502164341 | 18 | 81 | 3.2 | 12.9 | 0.00 | 1.09 | 0.23 | 86 | 1019.8 |
| 20260502163849 | 18 | 117 | 6.4 | 14.5 | 0.00 | 1.09 | 0.23 | 86 | 1019.8 |
| 20260502162830 | 18 | 114 | 4.8 | 14.5 | 0.00 | 1.09 | 0.23 | 87 | 1020.2 |
| 20260502162342 | 18 | 119 | 8.0 | 14.5 | 0.00 | 1.09 | 0.23 | 86 | 1020.3 |
| 20260502161830 | 18 | 112 | 8.0 | 14.5 | 0.00 | 1.09 | 0.23 | 86 | 1020.3 |
| 20260502161342 | 18 | 89 | 8.0 | 14.5 | 0.00 | 1.09 | 0.23 | 86 | 1020.5 |
| 20260502160829 | 18 | 123 | 6.4 | 16.1 | 0.00 | 1.09 | 0.23 | 86 | 1020.6 |
| 20260502160346 | 18 | 128 | 11.3 | 16.1 | 0.00 | 1.09 | 0.23 | 86 | 1020.6 |
| 20260502152341 | 18 | 157 | 8.0 | 17.7 | 0.00 | 1.09 | 0.23 | 86 | 1020.7 |
| 20260502151845 | 18 | 140 | 9.7 | 17.7 | 0.00 | 1.09 | 0.23 | 85 | 1020.6 |
| 20260502151336 | 18 | 121 | 8.0 | 14.5 | 0.00 | 1.09 | 0.23 | 85 | 1020.8 |
| 20260502150843 | 18 | 163 | 6.4 | 17.7 | 0.00 | 1.09 | 0.23 | 85 | 1020.9 |
| 20260502123329 | 18 | 157 | 8.0 | 17.7 | 0.00 | 1.09 | 0.23 | 84 | 1022.3 |
| 20260502122837 | 18 | 168 | 9.7 | 17.7 | 0.00 | 1.09 | 0.23 | 83 | 1022.3 |
| 20260502122330 | 19 | 165 | 8.0 | 19.3 | 0.00 | 1.09 | 0.23 | 83 | 1022.3 |
| 20260502121332 | 19 | 150 | 9.7 | 19.3 | 0.00 | 1.09 | 0.23 | 81 | 1022.4 |
| 20260502120333 | 19 | 132 | 8.0 | 16.1 | 0.00 | 1.09 | 0.23 | 81 | 1022.6 |
| 20260502115833 | 19 | 157 | 9.7 | 14.5 | 0.00 | 1.09 | 0.23 | 81 | 1022.5 |
| 20260502115348 | 19 | 168 | 8.0 | 16.1 | 0.00 | 1.09 | 0.23 | 81 | 1022.6 |
| 20260502114832 | 19 | 142 | 8.0 | 16.1 | 0.00 | 1.09 | 0.23 | 81 | 1022.6 |
| 20260502114343 | 19 | 121 | 9.7 | 19.3 | 0.00 | 1.09 | 0.23 | 81 | 1022.6 |
| 20260502113831 | 19 | 125 | 12.9 | 19.3 | 0.00 | 1.09 | 0.23 | 80 | 1022.5 |
| 20260502113343 | 19 | 96 | 4.8 | 16.1 | 0.00 | 1.09 | 0.23 | 81 | 1022.5 |
| 20260502112831 | 19 | 135 | 8.0 | 16.1 | 0.00 | 1.09 | 0.23 | 81 | 1022.6 |
| 20260502112345 | 19 | 100 | 8.0 | 16.1 | 0.00 | 1.09 | 0.23 | 81 | 1022.8 |
| 20260502111346 | 19 | 119 | 8.0 | 17.7 | 0.00 | 1.09 | 0.23 | 81 | 1023.0 |
| 20260502110830 | 19 | 113 | 11.3 | 17.7 | 0.00 | 1.09 | 0.23 | 81 | 1023.1 |
| 20260502110342 | 19 | 135 | 6.4 | 14.5 | 0.00 | 1.09 | 0.23 | 81 | 1023.1 |
| 20260502105835 | 19 | 125 | 6.4 | 16.1 | 0.00 | 1.09 | 0.23 | 81 | 1023.0 |
| 20260502104839 | 19 | 155 | 8.0 | 16.1 | 0.00 | 1.09 | 0.23 | 82 | 1023.3 |
| 20260502104332 | 19 | 124 | 8.0 | 14.5 | 0.00 | 1.09 | 0.23 | 83 | 1023.4 |
| 20260502103839 | 18 | 129 | 6.4 | 14.5 | 0.00 | 1.09 | 0.23 | 83 | 1023.3 |
| 20260502103337 | 18 | 157 | 6.4 | 17.7 | 0.00 | 1.09 | 0.23 | 83 | 1023.4 |
| 20260502101841 | 18 | 151 | 8.0 | 17.7 | 0.00 | 1.09 | 0.23 | 83 | 1023.6 |
| 20260502101338 | 18 | 152 | 11.3 | 17.7 | 0.00 | 1.09 | 0.23 | 82 | 1023.6 |
| 20260502100842 | 19 | 160 | 8.0 | 16.1 | 0.00 | 1.09 | 0.23 | 82 | 1023.6 |
| 20260502100334 | 19 | 143 | 8.0 | 11.3 | 0.00 | 1.09 | 0.23 | 80 | 1023.6 |
| 20260502091343 | 18 | 149 | 6.4 | 14.5 | 0.00 | 1.09 | 0.23 | 84 | 1023.4 |
| 20260502090831 | 18 | 85 | 8.0 | 14.5 | 0.00 | 1.09 | 0.23 | 85 | 1023.3 |
| 20260502090342 | 18 | 87 | 4.8 | 16.1 | 0.00 | 1.09 | 0.23 | 86 | 1023.3 |
| 20260502071340 | 17 | 138 | 6.4 | 12.9 | 0.00 | 1.09 | 0.23 | 94 | 1023.5 |
| 20260502070846 | 17 | 141 | 4.8 | 8.0 | 0.00 | 1.09 | 0.23 | 94 | 1023.4 |
| 20260502070338 | 17 | 122 | 1.6 | 8.0 | 0.00 | 1.09 | 0.23 | 94 | 1023.3 |
| 20260502065835 | 17 | 121 | 3.2 | 8.0 | 0.00 | 1.09 | 0.23 | 94 | 1023.3 |
| 20260502065347 | 17 | 128 | 3.2 | 8.0 | 0.00 | 1.09 | 0.23 | 94 | 1023.4 |
| 20260502064832 | 17 | 140 | 0.0 | 8.0 | 0.00 | 1.09 | 0.23 | 94 | 1023.4 |
| 20260502064347 | 17 | 140 | 1.6 | 11.3 | 0.00 | 1.09 | 0.23 | 94 | 1023.4 |
| 20260502063834 | 17 | 127 | 6.4 | 11.3 | 0.00 | 1.09 | 0.23 | 94 | 1023.3 |
| 20260502063345 | 17 | 152 | 3.2 | 9.7 | 0.00 | 1.09 | 0.23 | 94 | 1023.3 |
| 20260502061830 | 17 | 128 | 0.0 | 4.8 | 0.00 | 1.09 | 0.23 | 94 | 1023.3 |
| 20260502061344 | 17 | 129 | 1.6 | 6.4 | 0.00 | 1.09 | 0.23 | 94 | 1023.2 |
| 20260502060344 | 17 | 124 | 4.8 | 8.0 | 0.00 | 1.09 | 0.23 | 94 | 1023.2 |
| 20260502055842 | 17 | 134 | 1.6 | 8.0 | 0.00 | 1.09 | 0.23 | 94 | 1023.2 |
| 20260502055333 | 17 | 128 | 4.8 | 8.0 | 0.00 | 1.09 | 0.23 | 94 | 1023.1 |
| 20260502054841 | 17 | 150 | 1.6 | 8.0 | 0.00 | 1.09 | 0.23 | 94 | 1023.1 |
| 20260502054337 | 17 | 128 | 3.2 | 9.7 | 0.00 | 1.09 | 0.23 | 94 | 1023.1 |
| 20260502053336 | 17 | 128 | 4.8 | 8.0 | 0.00 | 1.09 | 0.23 | 94 | 1023.0 |
| 20260502052842 | 17 | 117 | 4.8 | 8.0 | 0.00 | 1.09 | 0.23 | 94 | 1022.9 |
| 20260502051843 | 17 | 92 | 1.6 | 8.0 | 0.00 | 1.09 | 0.23 | 94 | 1022.9 |
| 20260502050844 | 17 | 94 | 3.2 | 9.7 | 0.00 | 1.09 | 0.23 | 94 | 1022.8 |
| 20260502050335 | 17 | 313 | 0.0 | 3.2 | 0.10 | 1.09 | 0.23 | 94 | 1022.8 |
| 20260502045837 | 17 | 313 | 0.0 | 3.2 | 0.20 | 1.09 | 0.23 | 94 | 1022.8 |
| 20260502045329 | 17 | 308 | 0.0 | 3.2 | 0.51 | 1.09 | 0.23 | 94 | 1022.7 |
| 20260502044836 | 17 | 307 | 0.0 | 3.2 | 0.61 | 1.09 | 0.23 | 94 | 1022.7 |
| 20260502044331 | 17 | 301 | 0.0 | 1.6 | 0.61 | 1.09 | 0.23 | 94 | 1022.7 |
| 20260502042839 | 17 | 301 | 0.0 | 0.0 | 0.71 | 1.09 | 0.23 | 94 | 1022.7 |
| 20260502042331 | 17 | 301 | 0.0 | 0.0 | 0.71 | 1.09 | 0.23 | 94 | 1022.7 |
| 20260502041836 | 17 | 301 | 0.0 | 0.0 | 0.71 | 1.09 | 0.23 | 94 | 1022.7 |
| 20260502041348 | 17 | 301 | 0.0 | 1.6 | 0.71 | 1.09 | 0.23 | 94 | 1022.7 |
| 20260502040837 | 17 | 301 | 0.0 | 1.6 | 0.71 | 1.09 | 0.23 | 94 | 1022.8 |
| 20260502040348 | 17 | 301 | 0.0 | 0.0 | 0.61 | 0.99 | 0.20 | 94 | 1022.8 |
| 20260502035844 | 17 | 301 | 0.0 | 0.0 | 0.51 | 0.89 | 0.18 | 94 | 1022.8 |
| 20260502035336 | 17 | 300 | 0.0 | 1.6 | 0.20 | 0.61 | 0.13 | 94 | 1022.8 |
| 20260502034336 | 17 | 300 | 0.0 | 0.0 | 0.10 | 0.51 | 0.10 | 94 | 1022.8 |
| 20260502033844 | 17 | 301 | 0.0 | 1.6 | 0.10 | 0.51 | 0.10 | 93 | 1022.8 |
| 20260502032845 | 17 | 300 | 0.0 | 3.2 | 0.00 | 0.41 | 0.08 | 93 | 1022.9 |
| 20260502031849 | 17 | 310 | 0.0 | 1.6 | 0.20 | 0.41 | 0.08 | 93 | 1022.9 |
| 20260502031340 | 17 | 310 | 0.0 | 1.6 | 0.20 | 0.41 | 0.08 | 93 | 1022.9 |
| 20260502030829 | 17 | 310 | 1.6 | 1.6 | 0.20 | 0.41 | 0.08 | 92 | 1022.9 |
| 20260502030344 | 17 | 312 | 0.0 | 1.6 | 0.30 | 0.41 | 0.08 | 92 | 1022.9 |
| 20260502025336 | 17 | 313 | 0.0 | 1.6 | 0.30 | 0.41 | 0.08 | 92 | 1023.0 |
| 20260502024839 | 17 | 313 | 0.0 | 0.0 | 0.30 | 0.41 | 0.08 | 92 | 1022.9 |
| 20260502024331 | 17 | 313 | 0.0 | 1.6 | 0.41 | 0.41 | 0.08 | 92 | 1022.9 |
| 20260502023839 | 17 | 313 | 0.0 | 1.6 | 0.41 | 0.41 | 0.08 | 92 | 1023.0 |
| 20260502023332 | 17 | 313 | 0.0 | 1.6 | 0.41 | 0.41 | 0.08 | 91 | 1023.0 |
| 20260502022837 | 17 | 313 | 0.0 | 1.6 | 0.41 | 0.41 | 0.08 | 91 | 1023.0 |
| 20260502022350 | 17 | 313 | 0.0 | 0.0 | 0.30 | 0.30 | 0.05 | 91 | 1023.0 |
| 20260502021835 | 17 | 313 | 0.0 | 3.2 | 0.20 | 0.20 | 0.05 | 91 | 1023.0 |
| 20260502021344 | 17 | 313 | 0.0 | 3.2 | 0.20 | 0.20 | 0.05 | 91 | 1023.0 |
| 20260502020344 | 17 | 313 | 0.0 | 3.2 | 0.10 | 0.10 | 0.03 | 90 | 1023.0 |
| 20260502015840 | 17 | 313 | 1.6 | 4.8 | 0.10 | 0.10 | 0.03 | 90 | 1023.1 |
| 20260502015334 | 17 | 329 | 1.6 | 3.2 | 0.10 | 0.10 | 0.03 | 90 | 1023.2 |
| 20260502014840 | 17 | 11 | 1.6 | 4.8 | 0.10 | 0.10 | 0.03 | 90 | 1023.2 |
| 20260502014332 | 17 | 19 | 1.6 | 4.8 | 0.00 | 0.00 | 0.00 | 90 | 1023.3 |
| 20260502013838 | 17 | 26 | 0.0 | 6.4 | 0.00 | 0.00 | 0.00 | 90 | 1023.2 |
| 20260502013336 | 17 | 35 | 1.6 | 6.4 | 0.00 | 0.00 | 0.00 | 90 | 1023.2 |
| 20260502011845 | 17 | 28 | 4.8 | 11.3 | 0.00 | 0.00 | 0.00 | 90 | 1023.3 |
| 20260502011339 | 17 | 20 | 4.8 | 11.3 | 0.00 | 0.00 | 0.00 | 91 | 1023.4 |
| 20260502010845 | 17 | 19 | 1.6 | 8.0 | 0.00 | 0.00 | 0.00 | 91 | 1023.5 |
| 20260502010336 | 17 | 44 | 1.6 | 8.0 | 0.00 | 0.00 | 0.00 | 91 | 1023.6 |
| 20260502005834 | 17 | 57 | 3.2 | 8.0 | 0.00 | 0.10 | 0.00 | 91 | 1023.6 |
| 20260502005329 | 17 | 69 | 4.8 | 8.0 | 0.00 | 0.10 | 0.00 | 91 | 1023.6 |
| 20260502004840 | 17 | 53 | 3.2 | 8.0 | 0.00 | 0.10 | 0.00 | 91 | 1023.7 |
| 20260502004334 | 17 | 48 | 3.2 | 8.0 | 0.00 | 0.10 | 0.00 | 91 | 1023.7 |
| 20260502003841 | 17 | 72 | 4.8 | 11.3 | 0.00 | 0.10 | 0.00 | 91 | 1023.8 |
| 20260502003331 | 17 | 51 | 4.8 | 11.3 | 0.00 | 0.10 | 0.00 | 91 | 1023.7 |
| 20260502002836 | 17 | 38 | 3.2 | 11.3 | 0.00 | 0.10 | 0.00 | 91 | 1023.8 |
| 20260502001839 | 17 | 53 | 3.2 | 9.7 | 0.00 | 0.10 | 0.00 | 92 | 1024.0 |
| 20260502001350 | 17 | 51 | 4.8 | 9.7 | 0.00 | 0.10 | 0.00 | 92 | 1024.1 |
| 20260502000836 | 17 | 61 | 3.2 | 8.0 | 0.00 | 0.10 | 0.00 | 91 | 1024.2 |
| 20260502000349 | 17 | 61 | 3.2 | 8.0 | 0.00 | 0.10 | 0.00 | 91 | 1024.3 |
| 20260501235847 | 17 | 61 | 3.2 | 8.0 | 0.00 | 0.10 | 0.00 | 91 | 1024.4 |
| 20260501234847 | 17 | 36 | 3.2 | 8.0 | 0.00 | 0.10 | 0.00 | 91 | 1024.4 |
| 20260501234338 | 17 | 50 | 3.2 | 9.7 | 0.00 | 0.10 | 0.00 | 92 | 1024.4 |
| 20260501233844 | 17 | 60 | 4.8 | 11.3 | 0.00 | 0.10 | 0.00 | 92 | 1024.4 |
| 20260501233336 | 17 | 72 | 3.2 | 11.3 | 0.00 | 0.10 | 0.00 | 92 | 1024.4 |
| 20260501232844 | 17 | 81 | 4.8 | 8.0 | 0.00 | 0.10 | 0.00 | 92 | 1024.5 |
| 20260501232336 | 17 | 71 | 1.6 | 6.4 | 0.00 | 0.10 | 0.00 | 92 | 1024.5 |
| 20260501231843 | 17 | 48 | 3.2 | 9.7 | 0.00 | 0.10 | 0.00 | 92 | 1024.5 |
| 20260501231338 | 17 | 86 | 4.8 | 11.3 | 0.00 | 0.10 | 0.00 | 92 | 1024.5 |
| 20260501230829 | 17 | 61 | 4.8 | 11.3 | 0.00 | 0.10 | 0.00 | 92 | 1024.5 |
| 20260501230341 | 17 | 51 | 3.2 | 11.3 | 0.00 | 0.10 | 0.00 | 92 | 1024.5 |
| 20260501225838 | 17 | 49 | 3.2 | 11.3 | 0.00 | 0.10 | 0.00 | 92 | 1024.4 |
| 20260501225329 | 17 | 61 | 4.8 | 9.7 | 0.00 | 0.10 | 0.00 | 92 | 1024.5 |
| 20260501224330 | 17 | 53 | 4.8 | 12.9 | 0.00 | 0.10 | 0.00 | 92 | 1024.5 |
| 20260501223838 | 17 | 33 | 4.8 | 12.9 | 0.00 | 0.10 | 0.00 | 92 | 1024.5 |
| 20260501223331 | 17 | 56 | 4.8 | 12.9 | 0.00 | 0.10 | 0.00 | 92 | 1024.6 |
| 20260501222839 | 17 | 59 | 4.8 | 12.9 | 0.00 | 0.10 | 0.00 | 92 | 1024.6 |
| 20260501222334 | 17 | 80 | 3.2 | 11.3 | 0.00 | 0.10 | 0.00 | 92 | 1024.6 |
| 20260501221840 | 17 | 59 | 3.2 | 11.3 | 0.00 | 0.10 | 0.00 | 92 | 1024.6 |
| 20260501221330 | 17 | 59 | 3.2 | 8.0 | 0.00 | 0.10 | 0.00 | 92 | 1024.5 |
| 20260501220840 | 17 | 44 | 3.2 | 8.0 | 0.00 | 0.10 | 0.00 | 92 | 1024.6 |
| 20260501220332 | 17 | 57 | 4.8 | 12.9 | 0.00 | 0.10 | 0.00 | 91 | 1024.7 |
| 20260501214834 | 17 | 60 | 6.4 | 14.5 | 0.00 | 0.10 | 0.03 | 91 | 1024.7 |
| 20260501214329 | 17 | 63 | 6.4 | 17.7 | 0.00 | 0.10 | 0.03 | 91 | 1024.6 |
| 20260501213835 | 17 | 90 | 9.7 | 16.1 | 0.00 | 0.10 | 0.03 | 91 | 1024.6 |
| 20260501213327 | 17 | 71 | 8.0 | 16.1 | 0.00 | 0.10 | 0.03 | 91 | 1024.7 |
| 20260501212835 | 18 | 57 | 6.4 | 12.9 | 0.00 | 0.10 | 0.03 | 91 | 1024.7 |
| 20260501212347 | 18 | 73 | 6.4 | 11.3 | 0.00 | 0.10 | 0.03 | 91 | 1024.7 |
| 20260501211834 | 18 | 88 | 4.8 | 9.7 | 0.00 | 0.10 | 0.03 | 91 | 1024.8 |
| 20260501211345 | 18 | 96 | 1.6 | 8.0 | 0.00 | 0.10 | 0.03 | 91 | 1024.8 |
| 20260501210849 | 18 | 66 | 1.6 | 8.0 | 0.00 | 0.10 | 0.03 | 91 | 1024.8 |
| 20260501210340 | 18 | 67 | 3.2 | 8.0 | 0.00 | 0.10 | 0.03 | 91 | 1024.8 |
| 20260501205837 | 18 | 71 | 1.6 | 11.3 | 0.00 | 0.10 | 0.03 | 91 | 1024.8 |
| 20260501205329 | 18 | 61 | 4.8 | 11.3 | 0.00 | 0.10 | 0.03 | 91 | 1024.8 |
| 20260501204332 | 18 | 75 | 3.2 | 8.0 | 0.00 | 0.10 | 0.03 | 91 | 1024.8 |
| 20260501203840 | 18 | 73 | 4.8 | 11.3 | 0.00 | 0.10 | 0.03 | 90 | 1024.7 |
| 20260501202837 | 18 | 71 | 3.2 | 8.0 | 0.00 | 0.10 | 0.03 | 90 | 1024.5 |
| 20260501202329 | 18 | 76 | 4.8 | 9.7 | 0.00 | 0.10 | 0.03 | 90 | 1024.4 |
| 20260501201329 | 18 | 73 | 0.0 | 11.3 | 0.00 | 0.10 | 0.03 | 90 | 1024.5 |
| 20260501200832 | 18 | 75 | 3.2 | 11.3 | 0.00 | 0.10 | 0.03 | 90 | 1024.3 |
| 20260501195838 | 18 | 61 | 6.4 | 9.7 | 0.00 | 0.10 | 0.03 | 90 | 1024.2 |
| 20260501195333 | 18 | 64 | 6.4 | 11.3 | 0.00 | 0.10 | 0.03 | 90 | 1024.2 |
| 20260501194337 | 18 | 72 | 3.2 | 12.9 | 0.00 | 0.10 | 0.03 | 90 | 1024.1 |
| 20260501193845 | 18 | 68 | 4.8 | 11.3 | 0.00 | 0.10 | 0.03 | 90 | 1024.0 |
| 20260501193337 | 18 | 70 | 6.4 | 12.9 | 0.00 | 0.10 | 0.03 | 89 | 1024.0 |
| 20260501192339 | 18 | 74 | 3.2 | 11.3 | 0.00 | 0.10 | 0.03 | 89 | 1023.8 |
| 20260501191848 | 18 | 66 | 3.2 | 11.3 | 0.00 | 0.10 | 0.03 | 89 | 1023.7 |
| 20260501191341 | 18 | 82 | 4.8 | 14.5 | 0.00 | 0.10 | 0.03 | 89 | 1023.6 |
| 20260501190343 | 18 | 88 | 6.4 | 12.9 | 0.00 | 0.10 | 0.03 | 89 | 1023.5 |
| 20260501185838 | 18 | 73 | 4.8 | 12.9 | 0.00 | 0.10 | 0.03 | 89 | 1023.5 |
| 20260501185332 | 18 | 78 | 4.8 | 11.3 | 0.00 | 0.10 | 0.03 | 88 | 1023.3 |
| 20260501184838 | 18 | 77 | 3.2 | 9.7 | 0.00 | 0.10 | 0.03 | 89 | 1023.4 |
| 20260501184330 | 18 | 82 | 4.8 | 12.9 | 0.00 | 0.10 | 0.03 | 88 | 1023.4 |
| 20260501183836 | 18 | 92 | 6.4 | 12.9 | 0.00 | 0.10 | 0.03 | 88 | 1023.4 |